SILO ALERT LOG


Silo ID Alert Type Alert Message Silo Type Points Depth (mm) Strength Temperature (°C) Humidity (%) Height (mm) Volume (㎥) Weight (t) Flag Time
WJWJR01 Humidity 습도센서 측정값이 80% 초과 72 7510 1235 25 84 129 14.703 9.295 0 2026-07-12 04:25:56.000
WJWJR01 Humidity 습도센서 측정값이 80% 초과 71 7520 1228 25.3 83.7 120 13.572 8.58 0 2026-07-12 03:25:57.000
WJWJR01 Humidity 습도센서 측정값이 80% 초과 75 7510 1199 25.6 83.1 129 14.703 9.295 0 2026-07-12 02:25:58.000
WJWJR01 Humidity 습도센서 측정값이 80% 초과 77 7490 1212 26 82.5 149 16.965 10.725 0 2026-07-12 01:26:06.000
WJWJR01 Humidity 습도센서 측정값이 80% 초과 72 7510 1183 26.4 81.8 129 14.703 9.295 0 2026-07-12 00:25:58.000
WJWJR01 Humidity 습도센서 측정값이 80% 초과 75 7470 1208 26.9 81.1 169 19.227 12.155 0 2026-07-11 23:25:58.000
WJWJR01 Humidity 습도센서 측정값이 80% 초과 75 7510 1189 29.4 80.4 129 14.703 9.295 0 2026-07-11 11:26:02.000
WJWJR01 Humidity 습도센서 측정값이 80% 초과 72 7510 1230 28.1 83.5 129 14.703 9.295 0 2026-07-11 10:26:00.000
WJWJR05 Humidity 습도센서 측정값이 80% 초과 68 5760 2791 28.6 82.1 1970 222.802 140.855 0 2026-07-11 10:25:48.000
WJWJR01 Humidity 습도센서 측정값이 80% 초과 76 7510 1238 26.5 85.8 129 14.703 9.295 0 2026-07-11 09:26:01.000
WJWJR05 Humidity 습도센서 측정값이 80% 초과 66 5730 2786 27.5 83.3 2000 226.195 143 0 2026-07-11 09:25:47.000
WJWJR01 Humidity 습도센서 측정값이 80% 초과 75 7510 1226 25.1 90 129 14.703 9.295 0 2026-07-11 08:26:00.000
WJWJR05 Humidity 습도센서 측정값이 80% 초과 66 5770 2730 26.6 81.1 1960 221.671 140.14 0 2026-07-11 08:25:47.000
WJWJR01 Humidity 습도센서 측정값이 80% 초과 76 7530 1228 24.5 88.1 109 12.441 7.865 0 2026-07-11 07:25:59.000
WJWJR05 Humidity 습도센서 측정값이 80% 초과 67 5730 2746 26.5 81.3 2000 226.195 143 0 2026-07-11 07:25:49.000
WJWJR01 Humidity 습도센서 측정값이 80% 초과 74 7520 1214 24.5 87.6 120 13.572 8.58 0 2026-07-11 06:26:01.000
WJWJR05 Humidity 습도센서 측정값이 80% 초과 66 5760 2744 26.5 81.3 1970 222.802 140.855 0 2026-07-11 06:25:46.000
WJWJR01 Humidity 습도센서 측정값이 80% 초과 77 7510 1206 24.5 87.3 129 14.703 9.295 0 2026-07-11 05:26:07.000
WJWJR05 Humidity 습도센서 측정값이 80% 초과 65 5770 2717 26.5 81.3 1960 221.671 140.14 0 2026-07-11 05:25:48.000
WJWJR01 Humidity 습도센서 측정값이 80% 초과 74 7520 1201 24.5 87.2 120 13.572 8.58 0 2026-07-11 04:26:01.000

[첫 페이지] [32] [33] [34] [35] 36 [37] [38] [39] [40] [마지막 페이지]